STARLINK-11524, 62839

Orbit data source: Space-Track

STARLINK-11524, 62839 is a payload satellite owned by SpaceX/Seattle (US) in LEO that was launched on Mon, 27 Jan 2025 UTC via an FALCON 9 launch vehicle from the Air Force Eastern Test Range (AFETR). Payload-class satellites include a variety of spacecraft equipped with specific instruments for various scientific and technological missions. These include communications satellites like Starlink; space stations such as the ISS; scientific satellites like the Hubble; Earth observation satellites from companies like Planet Labs, Umbra, and HawkEye 360; GPS; miniature CubeSats for education and research; and military/defense satellites.

Loading next visibility...
Identifier
62839, 2025-019L
Orbit
LEO
Country
Flag of USUS
Related business
Manufacturer
SpaceX/Seattle
Mission
Operational Commercial Communications
Bus & Motor
STARLINK V2MD, Unknown motor
Mass
960 kg wet, ~910 kg dry
Launch date (UTC)
2025-01-27 (9 months ago)
Launch vehicle
FALCON 9
Launch site
Air Force Eastern Test Range (AFETR)
Object type
Payload
Rocket body
Debris
Shape & HBR
Box + 2 Pan, 18.1 m
Radar Cross Section
36.964 m², Large (>1 m²)

Expand to show TLE details & history
Last TLE update: 19 hours ago

TLE from 19 hours ago
0 STARLINK-11524
1 62839U 25019L   25306.44170823  .00279484  00000-0  20970-2 0  9994
2 62839  42.9998 353.3740 0000872 229.9625 130.1167 15.70977163 43864
Epoch: 2025-11-02T10:36Z
TLE epoch observation values (Epoch: 2025-11-02T10:36:03.591Z)
Latitude
0.00005°
Longitude
152.40171°
Altitude
356.253 km
Speed
7.697 km/s
True Right ascension
23h 33m 29s
True Declination
0° 00' 00"
Sunlit
Object was in full shadow at epoch
Visualization orbit readout
Latitude
Unknown
Longitude
Unknown
Altitude
Unknown
Speed
Unknown
Apparent Right ascension
Unknown
Apparent Declination
Unknown
Sunlit
N/A
Visualization observer readout
Local Sidereal Time
01:27:01
Azimuth
Unknown
Elevation
Unknown
Doppler factor
Unknown
Orbital elements
Apogee altitude
358.672 km
Perigee altitude
357.497 km
Semi-major axis
6,736.222 km
Eccentricity
0.00009
Inclination
42.9998°
RAAN
353.374°
Arg. of periapsis
229.9625°
True anomaly
130.12434°
Mean anomaly
130.1167°
Eccentric anomaly
130.12052°
Mean motion
3.92571 °/min
Orbital period
91.7 mins
BSTAR
0.002097
Loading maneuver chart data...
Computing Atmospheric mass density...
Loading historical data...
Loading historical data...
Loading historical data...
Loading historical data...
Loading historical data...
Loading historical data...
Loading historical data...

Documentation

Showing up to 5 results
|